Regional Weather Roundup
Issued by NWS

Home | Current Version | Previous Version | Text Only | Print | Product List | Glossary Off
Versions: 1 2 3 4 5 6 7 8 9 10 11 12 13 14 15 16 17 18 19 20 21 22 23 24 25 26 27 28 29 30 31 32 33 34 35 36 37 38 39 40 41 42 43 44 45 46 47 48 49 50

641
ASUS45 KPSR 061710
RWRAZ

ARIZONA HOURLY REGIONAL WEATHER ROUNDUP
NATIONAL WEATHER SERVICE PHOENIX AZ
1000 AM MST SAT FEB 06 2016

NOTE: FAIR INDICATES FEW OR NO CLOUDS BELOW 12,000 FEET WITH NO
SIGNIFICANT WEATHER AND/OR OBSTRUCTIONS TO VISIBILITY.

AZZ001>003-036-061800-
NORTHWEST ARIZONA

CITY           SKY/WX    TMP DP  RH WIND       PRES   REMARKS
BULLHEAD CITY  SUNNY     54  27  35 N22G31    30.42S
KINGMAN        SUNNY     44  32  62 NE5       30.43S
$$

AZZ004>008-015-016-018-061800-
NORTH CENTRAL ARIZONA

CITY           SKY/WX    TMP DP  RH WIND       PRES   REMARKS
GRAND CANYON   SUNNY     40   1  19 E6        30.46F
WILLIAMS       SUNNY     39   3  22 S6        30.49F WCI  35
PRESCOTT       SUNNY     37  18  46 CALM      30.44F
FLAGSTAFF      SUNNY     30  13  49 E8        30.47S WCI  22
PAYSON         SUNNY     45   3  18 CALM      30.45S
PAGE           SUNNY     33  23  66 N3        30.56R
$$

AZZ009>014-017-061800-
NORTHEAST ARIZONA

CITY           SKY/WX    TMP DP  RH WIND       PRES   REMARKS
WINSLOW        SUNNY     30  19  63 SE6       30.55S WCI  24
SAINT JOHNS    SUNNY     29  15  56 CALM      30.51R
WINDOW ROCK    SUNNY     23   0  36 CALM      30.50S
SHOW LOW       SUNNY     28  14  54 N6        30.50R WCI  22
$$

AZZ023-061800-
GREATER PHOENIX AREA

CITY           SKY/WX    TMP DP  RH WIND       PRES   REMARKS
PHOENIX        MOSUNNY   60  14  16 E15       30.35F
BUCKEYE        SUNNY     54  18  24 CALM      30.38S
GLENDALE       MOSUNNY   55  21  26 N5        30.38F
LUKE AFB       SUNNY     56  22  26 NE3       30.35F
DEER VALLEY    SUNNY     58  15  18 N5        30.36S
SCOTTSDALE     SUNNY     56  15  20 CALM      30.37F
MESA-FALCON    SUNNY    N/A N/A N/A N17       30.36
MESA-GATEWAY   MOSUNNY   52  27  37 CALM      30.37S
CHANDLER       SUNNY     55  19  24 N6        30.36S
$$

AZZ027-028-061800-
SOUTHWEST MARICOPA COUNTY AND PINAL COUNTY

CITY           SKY/WX    TMP DP  RH WIND       PRES   REMARKS
CASA GRANDE    SUNNY     57  14  18 NE13      30.35S
GILA BEND      FAIR      56  21  26 NE7       30.32F
$$

AZZ503-504-507>509-061800-
SOUTHEAST ARIZONA

CITY           SKY/WX    TMP DP  RH WIND       PRES   REMARKS
TUCSON         SUNNY     58   7  13 E17G24    30.36S
DAVIS-MONTHAN  SUNNY     57   9  14 SE10      30.34S
RYAN FIELD     SUNNY     61  14  16 E17G23    30.35S
NOGALES        SUNNY     54   8  16 SW6       30.35R
SIERRA VISTA   SUNNY     46  10  23 E8        30.42R
DOUGLAS        SUNNY     49   8  19 NW5       30.43S
SAFFORD        SUNNY     47  10  22 SE14      30.46R
$$

AZZ020-021-025-026-031-061800-
SOUTHWEST ARIZONA

CITY           SKY/WX    TMP DP  RH WIND       PRES   REMARKS
YUMA           SUNNY     62  25  24 N15       30.34F
$$

CAZ031-033-041-043-047-048-061-061800-
SOUTHERN CALIFORNIA

CITY           SKY/WX    TMP DP  RH WIND       PRES   REMARKS
DOWNTOWN L.A.  SUNNY     63  26  24 CALM      30.28R
L.A. AIRPORT   SUNNY     65  23  20 VRB7      30.28R
SAN DIEGO      MOSUNNY   62  30  29 N3        30.26S
BURBANK        SUNNY     57  24  28 CALM      30.29R
ONTARIO        SUNNY     58  27  30 W6        30.28R
RIVERSIDE      SUNNY     60  28  29 NE5       30.29S
PALM SPRINGS   SUNNY     60  25  26 NW6       30.39S
EL CENTRO NAS  MOSUNNY   60  26  27 W6        30.38S
IMPERIAL       SUNNY     59  30  33 W8        30.36S
BLYTHE         SUNNY     55  27  34 NE3       30.39S
NEEDLES        SUNNY     56  27  32 N10       30.42S
$$

NVZ020-UTZ003-061800-
SOUTHERN NEVADA-UTAH

CITY           SKY/WX    TMP DP  RH WIND       PRES   REMARKS
LAS VEGAS      SUNNY     47  25  42 E5        30.44S
SALT LAKE CITY MOSUNNY   28  20  71 SE9       30.53F WCI  19
$$

NMZ009-TXZ055-061800-
NEW MEXICO-WEST TEXAS

CITY           SKY/WX    TMP DP  RH WIND       PRES   REMARKS
ALBUQUERQUE    SUNNY     35  13  40 N9        30.50F WCI  28
EL PASO        SUNNY     42   6  22 N12       30.48S
$$


........................KEY........................
SKY/WX - SKY CONDITION/WEATHER
TMP    - TEMPERATURE IN FAHRENHEIT
DP     - DEW POINT IN FAHRENHEIT
RH     - RELATIVE HUMIDITY IN PERCENT
WIND   - DIRECTION AND SPEED IN MILES PER HOUR (MPH)
VRB    - VARIABLE WIND DIRECTION
PRES   - MEAN SEA LEVEL PRESSURE IN INCHES OF MERCURY
         F - FALLING PRESSURE   R - RISING PRESSURE
         S - STEADY PRESSURE
VSB    - VISIBILITY IN MILES
HX     - HEAT INDEX IN FAHRENHEIT
WCI    - WIND CHILL INDEX IN FAHRENHEIT
TC     - TEMPERATURE IN CELSIUS WHICH IS ALSO KNOWN AS
         TEMPERATURE IN CENTIGRADE
AFB    - AIR FORCE BASE
         LUKE AFB IS LUKE AIR FORCE BASE
         DAVIS-MONTHAN IS DAVIS-MONTHAN AIR FORCE BASE
NAS    - NAVAL AIR STATION
         EL CENTRO NAS IS EL CENTRO NAVAL AIR STATION
N/A    - NOT AVAILABLE





USA.gov is the U.S. government's official web portal to all federal, state and local government web resources and services.